[[{"header":{"parameterUnit":"m.s-1","parameterCategory":1,"la1":30.2991,"la2":30.254,"lo1":-89.0895,"lo2":-89.0444,"dy":0.0017,"dx":0.0017,"nx":28,"ny":28,"refTime":"2024-07-31T21:00:00:Z","depth":0,"parameterNumber":2,"parameterNumberName":"U-component_of_WINDS"},"data":[0,0,0,0,0,0,0,0,0,0,0,0,0,0,0,0,0,0,0,0,0,0,0,0,0,0,0,0,0,0,0,0,0,0,0,0,0,0,0,0,0,0,0,0,0,0,0,0,0,0,0,0,0,0,0,0,0,0,3.5786,3.5787,0,3.5917,3.5919,3.592,3.5861,3.5858,3.5854,3.5851,3.5991,3.5997,3.6004,0,0,0,0,0,0,0,0,0,0,0,0,0,3.5488,3.5493,3.5785,3.5787,3.5789,3.5917,3.5919,3.592,3.5861,3.5857,3.5853,3.585,3.5989,3.5997,3.6005,0,0,0,0,0,0,0,0,0,0,0,0,0,3.5618,3.5495,3.5785,3.5775,3.5775,3.5916,3.5919,3.5921,3.5862,3.5857,3.5852,3.5848,3.5986,3.5996,3.6006,3.6167,0,0,3.6037,3.6041,0,0,0,0,0,0,0,0,3.5611,3.5629,3.5775,3.5776,3.5776,3.5867,3.5865,3.6004,3.5864,3.5829,3.5851,3.5845,3.5954,3.5967,3.6002,3.6174,3.618,3.6038,3.6044,3.6048,3.6051,0,0,0,0,0,0,0,3.5602,3.5623,3.5838,3.5777,3.5778,3.5765,3.5778,3.5891,3.5918,3.5832,3.5828,3.5844,3.5954,3.5993,3.6005,3.6182,3.6038,3.6047,3.6053,3.6057,3.6493,3.6498,0,0,0,0,0,0,3.5592,3.5616,3.5833,3.5842,3.568,3.5774,3.5789,3.5843,3.5916,3.5923,3.5848,3.5841,3.5978,3.5993,3.601,3.6204,3.6048,3.6058,3.6064,3.6487,3.6494,3.65,0,0,0,0,0,0,3.5586,3.5612,3.5828,3.5728,3.5754,3.5784,3.5846,3.5848,3.5887,3.5929,3.5934,3.5883,3.5974,3.5995,3.6128,3.6208,3.6062,3.6072,3.6481,3.649,3.6497,3.6594,0,0,0,0,0,0,3.5578,3.561,3.5671,3.5729,3.576,3.5943,3.5851,3.5855,3.5904,3.5896,3.5962,3.5969,3.5972,3.6113,3.6138,3.6219,3.608,3.6474,3.6485,3.6494,3.6584,3.6604,3.6622,0,0,0,0,0,3.5567,3.5694,3.5674,3.5701,3.5836,3.5948,3.5966,3.5966,3.5911,3.5973,3.5999,3.5967,3.6195,3.6127,3.6155,3.6241,3.6469,3.6482,3.6494,3.6575,3.66,3.6621,0,0,0,0,0,0,3.5645,3.5701,3.568,3.5829,3.5884,3.5938,3.6016,3.5992,3.6065,3.6055,3.6053,3.6069,3.6206,3.6236,3.616,3.6401,3.6324,3.6342,3.6376,3.64,3.6419,3.641,3.6088,0,0,0,0,0,3.5679,3.5765,3.5809,3.5936,3.5965,3.5986,3.6035,3.603,3.6087,3.6111,3.6147,3.6206,3.6291,3.6347,3.6427,3.6587,3.6602,3.6659,3.6679,3.6694,3.6711,3.6799,3.6825,3.6541,3.6541,3.654,0,0,3.5752,3.5793,3.5847,3.5953,3.5995,3.6085,3.6006,3.6104,3.6171,3.6126,3.6254,3.6283,3.6348,3.6495,3.6562,3.6525,3.6792,3.671,3.6722,3.673,3.6814,3.6841,3.6865,3.6549,3.6547,3.6546,0,0,3.5929,3.5968,3.6079,3.6122,3.6186,3.6199,3.6226,3.6283,3.63,3.6428,3.6396,3.6477,3.6623,3.6671,3.6715,3.691,3.6883,3.6937,3.7037,3.7123,3.7146,3.7165,3.7237,3.7262,3.6952,3.6953,3.6953,0,3.6012,3.6144,3.6139,3.624,3.6288,3.625,3.6362,3.6405,3.6493,3.6528,3.6485,3.6668,3.6709,3.6867,3.6915,3.6951,3.6983,3.693,3.7142,3.7162,3.7181,3.7249,3.7275,3.6959,3.6958,3.6958,3.6957,0,3.6242,3.6335,3.6416,3.6501,3.6558,3.6664,3.6677,3.6736,3.6726,3.6744,3.6875,3.6923,3.7013,3.705,3.7042,3.7208,3.7183,3.7141,3.7064,3.7214,3.7278,3.7304,3.6968,3.6966,3.6964,3.6962,0,0,3.6474,3.6553,3.6584,3.6622,3.669,3.6762,3.6867,3.6953,3.7004,3.7066,3.7156,3.728,3.7241,3.7291,3.7288,3.7363,3.7517,3.7312,3.7314,3.735,3.7704,3.7736,3.7766,3.7498,3.7503,3.7507,3.7699,0,3.6658,3.684,3.6839,3.7008,3.7094,3.7059,3.7151,3.7203,3.7223,3.73,3.7322,3.7411,3.7353,3.7383,3.7455,3.7482,3.7588,3.7468,3.7583,3.7588,3.757,3.7799,3.7834,3.8013,3.7724,3.7728,3.7731,0,3.6897,3.6965,3.7143,3.7198,3.7234,3.7316,3.7396,3.7469,3.7528,3.7537,3.7593,3.7578,3.7687,3.7605,3.7756,3.7674,3.7721,3.7742,3.7749,3.7761,3.767,3.7819,3.807,3.8097,3.777,3.7767,3.7764,0,3.705,3.7186,3.731,3.7344,3.7411,3.747,3.7501,3.7555,3.7607,3.7677,3.7711,3.7793,3.7838,3.7903,3.7912,3.7851,3.8064,3.7982,3.8076,3.8076,3.8124,3.8121,3.8387,3.8152,3.8151,3.8151,3.815,0,3.7256,3.7367,3.738,3.7456,3.758,3.7577,3.77,3.7726,3.7774,3.7857,3.7831,3.7909,3.7915,3.7996,3.8003,3.8128,3.8148,3.816,3.8161,3.8163,3.8162,3.8195,3.8184,3.8158,3.8156,3.8155,3.8154,0,3.7449,3.7462,3.7595,3.7647,3.7663,3.7752,3.7797,3.7871,3.7887,3.7992,3.8017,3.8044,3.8137,3.8151,3.8262,3.8267,3.8417,3.8404,3.8397,3.8395,3.8489,3.848,3.8786,3.8827,3.8564,3.8566,3.8568,0,3.758,3.7664,3.7725,3.7777,3.7811,3.7896,3.7949,3.795,3.8006,3.8079,3.8145,3.8236,3.8308,3.846,3.8491,3.8576,3.8566,3.8667,3.8579,3.8578,3.8569,3.8565,3.8574,3.8685,3.8688,3.869,3.8692,0,3.7813,3.7815,3.7891,3.797,3.8033,3.8095,3.8154,3.8199,3.8207,3.8272,3.8366,3.8423,3.8535,3.8626,3.871,3.8743,3.8721,3.8719,3.8746,3.875,3.8743,3.8749,3.8445,3.8713,3.8711,3.8709,3.8708,3.8707,3.798,3.8054,3.8108,3.8193,3.8237,3.8293,3.8365,3.839,3.8468,3.8558,3.8554,3.8659,3.8716,3.8826,3.8866,3.8949,3.8916,3.8954,3.8964,3.8974,3.8983,3.8728,3.8964,3.8963,3.8963,3.8962,3.8962,0,3.8213,3.8246,3.8324,3.8407,3.8474,3.8444,3.8507,3.8567,3.8658,3.8713,3.8785,3.8894,3.8982,3.9019,3.9106,3.9166,3.9158,3.9189,3.9185,3.9194,3.9007,3.8976,3.9194,3.9194,3.9194,3.9194,3.9194,3.9194,3.8342,3.8465,3.8473,3.8618,3.865,3.8751,3.879,3.8842,3.8885,3.9008,3.908,3.9103,3.9151,3.9242,3.9322,3.933,3.9365,3.9401,3.9405,3.923,3.9207,3.9185,3.9156,3.9408,3.9408,3.9586,3.9587,3.9589]},{"header":{"parameterUnit":"m.s-1","parameterCategory":1,"la1":30.2991,"la2":30.254,"lo1":-89.0895,"lo2":-89.0444,"dy":0.0017,"dx":0.0017,"nx":28,"ny":28,"refTime":"2024-07-31T21:00:00:Z","depth":0,"parameterNumber":3,"parameterNumberName":"V-component_of_WINDS"},"data":[0,0,0,0,0,0,0,0,0,0,0,0,0,0,0,0,0,0,0,0,0,0,0,0,0,0,0,0,0,0,0,0,0,0,0,0,0,0,0,0,0,0,0,0,0,0,0,0,0,0,0,0,0,0,0,0,0,0,-1.1977,-1.1977,0,-1.2,-1.2,-1.2001,-1.2006,-1.2005,-1.2005,-1.2005,-1.2028,-1.2028,-1.2029,0,0,0,0,0,0,0,0,0,0,0,0,0,-1.1935,-1.1935,-1.1977,-1.1977,-1.1977,-1.2,-1.2,-1.2001,-1.2006,-1.2005,-1.2005,-1.2005,-1.2027,-1.2028,-1.2029,0,0,0,0,0,0,0,0,0,0,0,0,0,-1.1955,-1.1936,-1.1976,-1.1982,-1.1983,-1.2,-1.2,-1.2001,-1.2006,-1.2005,-1.2005,-1.2005,-1.2027,-1.2028,-1.2029,-1.2042,0,0,-1.2033,-1.2033,0,0,0,0,0,0,0,0,-1.1954,-1.1956,-1.1981,-1.1982,-1.1983,-1.2,-1.1994,-1.2014,-1.2006,-1.1997,-1.2005,-1.2005,-1.2018,-1.202,-1.2025,-1.2043,-1.2044,-1.2033,-1.2034,-1.2034,-1.2035,0,0,0,0,0,0,0,-1.1952,-1.1955,-1.1986,-1.1982,-1.1983,-1.1983,-1.1986,-1.1998,-1.2009,-1.1998,-1.1998,-1.2001,-1.2019,-1.2024,-1.2026,-1.2044,-1.2033,-1.2034,-1.2035,-1.2035,-1.2073,-1.2073,0,0,0,0,0,0,-1.195,-1.1954,-1.1985,-1.1987,-1.1967,-1.1984,-1.1987,-1.1994,-1.2009,-1.2011,-1.2001,-1.2001,-1.2022,-1.2024,-1.2027,-1.2042,-1.2034,-1.2035,-1.2036,-1.2072,-1.2073,-1.2073,0,0,0,0,0,0,-1.1949,-1.1953,-1.1984,-1.1971,-1.1975,-1.1985,-1.1993,-1.1995,-1.2,-1.2011,-1.2013,-1.2005,-1.2022,-1.2025,-1.2038,-1.2043,-1.2036,-1.2037,-1.2072,-1.2073,-1.2073,-1.2072,0,0,0,0,0,0,-1.1948,-1.1952,-1.1957,-1.1971,-1.1975,-1.1995,-1.1994,-1.1996,-1.2003,-1.2003,-1.2015,-1.2017,-1.2022,-1.2036,-1.2039,-1.2044,-1.2038,-1.2072,-1.2072,-1.2073,-1.2072,-1.2073,-1.2073,0,0,0,0,0,-1.1946,-1.1956,-1.1958,-1.1961,-1.1982,-1.1996,-1.1998,-1.2005,-1.2003,-1.2008,-1.2015,-1.2016,-1.2042,-1.2038,-1.2041,-1.2046,-1.2071,-1.2072,-1.2073,-1.2072,-1.2073,-1.2073,0,0,0,0,0,0,-1.1942,-1.1958,-1.196,-1.1974,-1.1984,-1.1996,-1.2003,-1.2005,-1.2015,-1.2015,-1.2022,-1.2025,-1.2037,-1.2043,-1.2038,-1.2059,-1.2056,-1.2058,-1.2054,-1.2055,-1.2056,-1.2054,-1.2039,0,0,0,0,0,-1.1943,-1.1954,-1.1966,-1.1978,-1.1982,-1.1992,-1.1998,-1.2002,-1.2012,-1.2016,-1.2024,-1.2033,-1.2043,-1.205,-1.206,-1.2073,-1.2076,-1.2078,-1.2079,-1.208,-1.2081,-1.2088,-1.2089,-1.2075,-1.2075,-1.2075,0,0,-1.1945,-1.1955,-1.1961,-1.1977,-1.1985,-1.1995,-1.1995,-1.2006,-1.2013,-1.2018,-1.203,-1.2037,-1.2047,-1.2061,-1.2067,-1.2066,-1.2085,-1.2081,-1.2081,-1.2081,-1.2089,-1.209,-1.2091,-1.2076,-1.2076,-1.2076,0,0,-1.1953,-1.1962,-1.1972,-1.198,-1.1992,-1.1999,-1.2001,-1.2014,-1.2018,-1.2031,-1.2035,-1.2044,-1.2061,-1.2068,-1.2075,-1.2086,-1.2088,-1.2089,-1.2093,-1.21,-1.2101,-1.2102,-1.2106,-1.2107,-1.209,-1.209,-1.209,0,-1.1953,-1.1969,-1.1977,-1.1988,-1.1994,-1.2,-1.201,-1.2017,-1.2032,-1.2036,-1.2035,-1.2057,-1.2065,-1.208,-1.2083,-1.2088,-1.209,-1.2087,-1.21,-1.2101,-1.2102,-1.2106,-1.2107,-1.209,-1.209,-1.209,-1.209,0,-1.1969,-1.198,-1.1987,-1.2001,-1.2009,-1.2019,-1.2028,-1.2035,-1.2039,-1.2045,-1.2059,-1.2068,-1.208,-1.2084,-1.2087,-1.2099,-1.2099,-1.2099,-1.2096,-1.2103,-1.2107,-1.2109,-1.209,-1.209,-1.209,-1.209,0,0,-1.1974,-1.1994,-1.1996,-1.2003,-1.2017,-1.2025,-1.2036,-1.2048,-1.2054,-1.2064,-1.2072,-1.2087,-1.2088,-1.2095,-1.2099,-1.2105,-1.2114,-1.2105,-1.2105,-1.2106,-1.2127,-1.2127,-1.2128,-1.2115,-1.2116,-1.2116,-1.2126,0,-1.1984,-1.2004,-1.2011,-1.2027,-1.2037,-1.2042,-1.2051,-1.2061,-1.2067,-1.2076,-1.2083,-1.2093,-1.2093,-1.2098,-1.2104,-1.2111,-1.2118,-1.2111,-1.2123,-1.2123,-1.212,-1.213,-1.213,-1.2139,-1.2128,-1.2128,-1.2128,0,-1.1998,-1.2008,-1.2025,-1.2038,-1.2043,-1.2051,-1.2063,-1.2072,-1.2083,-1.2087,-1.2095,-1.2099,-1.211,-1.2108,-1.2123,-1.2118,-1.2123,-1.2128,-1.2128,-1.2129,-1.2126,-1.2131,-1.2142,-1.2143,-1.2131,-1.213,-1.213,0,-1.1999,-1.2018,-1.2031,-1.2036,-1.2052,-1.2058,-1.2064,-1.2075,-1.2082,-1.2092,-1.2097,-1.2108,-1.2114,-1.2123,-1.213,-1.2127,-1.2144,-1.2142,-1.2147,-1.2147,-1.215,-1.215,-1.2162,-1.2155,-1.2155,-1.2154,-1.2154,0,-1.2009,-1.2019,-1.2032,-1.2039,-1.2051,-1.2059,-1.207,-1.2077,-1.2087,-1.2096,-1.2101,-1.2109,-1.2118,-1.2127,-1.2133,-1.2144,-1.2147,-1.2151,-1.2152,-1.215,-1.2149,-1.2153,-1.2152,-1.2155,-1.2155,-1.2155,-1.2155,0,-1.2013,-1.2022,-1.2036,-1.205,-1.2053,-1.2061,-1.2073,-1.208,-1.2087,-1.2098,-1.2101,-1.2112,-1.2123,-1.2131,-1.2146,-1.2149,-1.2162,-1.2163,-1.2158,-1.2159,-1.2163,-1.2163,-1.2178,-1.218,-1.2172,-1.2172,-1.2172,0,-1.2018,-1.2026,-1.2041,-1.2047,-1.2054,-1.2065,-1.2072,-1.2081,-1.2088,-1.2101,-1.2107,-1.2119,-1.2128,-1.2146,-1.2155,-1.2166,-1.2167,-1.2172,-1.2169,-1.2166,-1.2167,-1.2166,-1.2167,-1.2172,-1.2172,-1.2172,-1.2172,0,-1.2026,-1.203,-1.2041,-1.2053,-1.2062,-1.2072,-1.2081,-1.2086,-1.2097,-1.2105,-1.2116,-1.2124,-1.2139,-1.215,-1.2162,-1.2169,-1.2172,-1.2173,-1.2175,-1.2172,-1.2169,-1.2171,-1.2159,-1.2172,-1.2172,-1.2172,-1.2172,-1.2172,-1.2031,-1.2038,-1.205,-1.2061,-1.207,-1.2079,-1.2087,-1.2095,-1.2105,-1.2118,-1.2122,-1.2135,-1.2145,-1.2162,-1.2169,-1.2178,-1.2178,-1.218,-1.2181,-1.2181,-1.2181,-1.2168,-1.218,-1.218,-1.218,-1.218,-1.218,0,-1.2039,-1.2047,-1.2057,-1.2071,-1.208,-1.2083,-1.2094,-1.2102,-1.2112,-1.2122,-1.2132,-1.2146,-1.2157,-1.2167,-1.2178,-1.2184,-1.2186,-1.2187,-1.2186,-1.2187,-1.2181,-1.2178,-1.2185,-1.2185,-1.2185,-1.2185,-1.2185,-1.2185,-1.2044,-1.2057,-1.2062,-1.2079,-1.2087,-1.2099,-1.2105,-1.2114,-1.2122,-1.2137,-1.2146,-1.2153,-1.2163,-1.2175,-1.2186,-1.2188,-1.2192,-1.2193,-1.2195,-1.2189,-1.2188,-1.2187,-1.2185,-1.2193,-1.2193,-1.2201,-1.2201,-1.2202]}]]